Cedar Rapids, IA

3:18 AM CDT on July 21, 2017 (GMT -0500)
The Eastern Iowa Airport

Weather History for KCID - April, 2014

Change the Weather History Date:

Saturday, April 5, 2014

  Actual Average Record
Temperature  
Mean Temperature 38 °F 45 °F  
Max Temperature 53 °F 56 °F 83 °F (1929)
Min Temperature 22 °F 34 °F 11 °F (1982)
Degree Days  
Heating Degree Days 27 20  
Month to date heating degree days 135 104  
Since 1 July heating degree days 7244 6268  
Cooling Degree Days 0 0  
Month to date cooling degree days 0 0  
Year to date cooling degree days 0 0  
Moisture  
Dew Point 26 °F    
Average Humidity 61    
Maximum Humidity 92    
Minimum Humidity 29    
Precipitation  
Precipitation 0.00 in 0.08 in 1.56 in (1965)
Month to date precipitation 0.18 0.40  
Year to date precipitation 2.32 4.64  
Sea Level Pressure  
Sea Level Pressure 30.15 in    
Wind  
Wind Speed 6 mph (SW)    
Max Wind Speed 12 mph    
Max Gust Speed 18 mph    
Visibility 9 miles    
Events      
T = Trace of Precipitation, MM = Missing Value Source: NWS Daily Summary

Daily Weather History Graph

Daily Weather History Graph

Search for Another Location

Airport or City:

Trip Planner

Search our weather history database for the weather conditions in past years. The results will help you decide how hot, cold, wet, or windy it might be!

Date:

Astronomy

Apr. 05, 2014 Rise Set
Actual Time 6:42 AM CDT 7:36 PM CDT
Civil Twilight 6:14 AM CDT 8:05 PM CDT
Nautical Twilight 5:40 AM CDT 8:38 PM CDT
Astronomical Twilight 5:05 AM CDT 9:14 PM CDT
Moon 10:47 AM CDT (4/5) 12:50 AM CDT (4/5)
Length of Visible Light 13h 50m
Length of Day
12h 53m
Waxing Crescent, 34% of the Moon is Illuminated
Apr 5
Waxing Crescent
Apr 7
First Quarter
Apr 15
Full
Apr 22
Last Quarter
Apr 29
New

Hourly Weather History & Observations

Time (CDT) Temp. Windchill Dew Point Humidity Pressure Visibility Wind Dir Wind Speed Gust Speed Precip Events Conditions
12:52 AM 28.9 °F 20.4 °F 25.0 °F 85% 30.13 in 10.0 mi WNW 9.2 mph - N/A   Clear
1:52 AM 27.0 °F 19.5 °F 24.1 °F 89% 30.14 in 9.0 mi WNW 6.9 mph - N/A   Clear
2:52 AM 26.1 °F 16.8 °F - N/A% 30.15 in 8.0 mi West 9.2 mph - N/A   Clear
3:52 AM 25.0 °F 16.3 °F - N/A% 30.15 in 8.0 mi West 8.1 mph - N/A   Clear
4:52 AM 24.1 °F 18.2 °F 23.0 °F 96% 30.16 in 7.0 mi West 4.6 mph - N/A   Clear
5:52 AM 24.1 °F 18.2 °F 23.0 °F 96% 30.16 in 6.0 mi West 4.6 mph - N/A   Clear
6:52 AM 25.0 °F - 21.9 °F 88% 30.18 in 4.0 mi Calm Calm - N/A   Clear
7:52 AM 28.0 °F 24.2 °F 25.0 °F 88% 30.20 in 4.0 mi West 3.5 mph - N/A   Clear
8:52 AM 33.1 °F 28.7 °F 28.9 °F 85% 30.21 in 5.0 mi WNW 4.6 mph - N/A   Clear
9:52 AM 37.0 °F 34.5 °F 30.0 °F 76% 30.22 in 10.0 mi SW 3.5 mph - N/A   Clear
10:52 AM 41.0 °F 35.8 °F 28.9 °F 62% 30.22 in 10.0 mi SSW 8.1 mph - N/A   Clear
11:52 AM 44.1 °F 39.5 °F 26.1 °F 49% 30.21 in 10.0 mi SW 8.1 mph - N/A   Clear
12:52 PM 46.0 °F 43.1 °F 27.0 °F 47% 30.20 in 10.0 mi SSW 5.8 mph - N/A   Clear
1:52 PM 46.9 °F - 26.1 °F 44% 30.19 in 10.0 mi South 9.2 mph - N/A   Clear
2:52 PM 50.0 °F - 26.1 °F 39% 30.16 in 10.0 mi WSW 6.9 mph - N/A   Clear
3:52 PM 51.1 °F - 25.0 °F 36% 30.12 in 10.0 mi South 5.8 mph - N/A   Clear
4:52 PM 53.1 °F - 23.0 °F 31% 30.11 in 10.0 mi South 11.5 mph - N/A   Clear
5:52 PM 52.0 °F - 25.0 °F 35% 30.10 in 10.0 mi South 11.5 mph - N/A   Clear
6:52 PM 50.0 °F - 25.0 °F 38% 30.10 in 10.0 mi South 6.9 mph - N/A   Clear
7:52 PM 45.0 °F 43.5 °F 25.0 °F 46% 30.10 in 10.0 mi SSE 3.5 mph - N/A   Clear
8:52 PM 41.0 °F 37.1 °F 25.0 °F 53% 30.11 in 10.0 mi SSE 5.8 mph - N/A   Clear
9:52 PM 39.0 °F 34.0 °F 26.1 °F 60% 30.10 in 10.0 mi SSE 6.9 mph - N/A   Clear
10:52 PM 37.9 °F 32.7 °F 26.1 °F 62% 30.09 in 10.0 mi SSE 6.9 mph - N/A   Clear
11:52 PM 37.0 °F 32.4 °F 26.1 °F 65% 30.09 in 10.0 mi SSE 5.8 mph - N/A   Clear